Miscellaneous Local Product
Issued by NWS Hastings, NE

Home | Current Version | Previous Version | Text Only | Print | Product List | Glossary On
Versions: 1 2 3 4 5 6 7 8 9 10 11 12 13 14 15 16 17 18 19 20 21 22 23 24 25 26 27 28 29 30 31 32 33 34 35 36 37 38 39 40 41 42 43 44 45 46 47 48 49 50
000
AXUS43 KGID 031802
MISGRI

GID CWA HOURLY WEATHER ROUNDUP
NATIONAL WEATHER SERVICE HASTINGS NE
100 PM CDT SUN MAY 03 2015

NOTE: "FAIR" INDICATES FEW OR NO CLOUDS BELOW 12,000 FEET WITH NO
SIGNIFICANT WEATHER AND/OR OBSTRUCTIONS TO VISIBILITY.

...SOUTH CENTRAL NEBRASKA...

CITY           SKY/WX    TMP DP  RH WIND       PRES   REMARKS
GRAND ISLAND   SUNNY     85  50  29 S7        29.75F
HASTINGS       SUNNY     86  45  23 SW6       29.75F
KEARNEY        SUNNY     82  45  26 W10G17    29.77S
ORD            MOSUNNY   81  47  30 N9        29.75R
YORK           MOSUNNY   82  52  34 S8        29.75F
AURORA         SUNNY     86  44  23 SW10G16   29.75F
LEXINGTON      SUNNY     82  47  28 W10       29.79R
HOLDREGE       SUNNY     82  43  25 SW12      29.79S
HEBRON         SUNNY     86  42  20 W7G16     29.76S

...NEBRASKA PANHANDLE...

CITY           SKY/WX    TMP DP  RH WIND       PRES   REMARKS
CHADRON        MOSUNNY   66  40  38 NE21      29.98S
ALLIANCE       SUNNY     68  40  35 N20G32    29.95R
SCOTTSBLUFF    SUNNY     70  38  31 NE12G22   29.97R
SIDNEY         SUNNY     71  42  35 N16G24    29.95R

...WESTERN AND NORTH CENTRAL NEBRASKA...

CITY           SKY/WX    TMP DP  RH WIND       PRES   REMARKS
VALENTINE      SUNNY     71  38  29 NE28G35   29.89R
AINSWORTH      MOSUNNY   72  42  34 N24G35    29.87R
ONEILL         MOSUNNY   75  55  48 N18G25    29.79R
BROKEN BOW     SUNNY     85  47  26 W13G18    29.78R
IMPERIAL       SUNNY     81  40  23 NW18G25   29.85S
NORTH PLATTE   SUNNY     78  47  33 N15       29.82R
MCCOOK         SUNNY     85  45  24 W12G18    29.81F

...EASTERN NEBRASKA...

CITY           SKY/WX    TMP DP  RH WIND       PRES   REMARKS
NORFOLK        SUNNY     79  56  45 VRB3      29.75R
SO SIOUX CITY  SUNNY     80  56  43 SE9       29.74S
TEKAMAH        SUNNY     82  60  47 S12G23    29.74F
COLUMBUS       MOSUNNY   79  57  47 NW5       29.76S
ALBION         MOSUNNY   79  52  39 CALM      29.75S
OMAHA EPPLEY   PTSUNNY   80  60  50 S12       29.75S
OFFUTT AFB     SUNNY     80  61  51 S8        29.75S
MILLARD        SUNNY     79  60  52 SW9       29.76R
LINCOLN        CLOUDY    74  58  57 SW5       29.76R
NEBRASKA CITY  SUNNY     78  51  39 S13       29.77F
BEATRICE       MOSUNNY   80  59  49 S14       29.76S
FALLS CITY     SUNNY     77  58  51 S15       29.78S

...NORTHERN KANSAS...

CITY           SKY/WX    TMP DP  RH WIND       PRES   REMARKS
GOODLAND       SUNNY     80  37  21 VRB6      29.89S
HILL CITY      MOSUNNY   86  43  22 MISG      29.81S
NORTON         CLEAR     88  32  13 SW6       29.80S
PHILLIPSBURG   SUNNY     88  43  20 SW8       29.79S
SMITH CENTER   SUNNY     86  45  23 SW3       29.79S
BELOIT         SUNNY     79  39  24 CALM      29.76F
HAYS           MOSUNNY   84  45  24 E8        29.81S
RUSSELL        SUNNY     87  44  22 MISG      29.79S
CONCORDIA      SUNNY     82  55  39 S13       29.78S
SALINA         SUNNY     85  57  38 S14       29.80F
TOPEKA         MOSUNNY   79  58  48 S20G29    29.83F



USA.gov is the U.S. government's official web portal to all federal, state and local government web resources and services.